User: anonymous   Login
Location: Roanoke
(37.2710°N, 79.9420°W)
Time: 01:23:41
(UTC-04:00)
Language:

Cosmos 1441 Rocket - Orbit

View from above orbital plane
View from above orbital plane
View from above satellite
View from above satellite

Ground track
Ground track

The orbit data is extracted from the following two-line orbital elements,

1 13819U 83010B   15215.50367760  .00000947  00000-0  50891-4 0  9999
2 13819 081.1142 236.9041 0035205 095.7163 264.8079 15.13373699770256
Epoch (UTC): 03 August 2015 12:05:17
Eccentricity: 0.0035205
inclination: 81.1142°
perigee height: 501 km
apogee height: 550 km
right ascension of ascending node: 236.9041°
argument of perigee: 95.7163°
revolutions per day: 15.13373699
mean anomaly at epoch: 264.8079°
orbit number at epoch: 77025

The dashed part of the orbit path shows where the satellite is in the earth's shadow,  

DLR